Tracking 18843 objects as of 21-November-2017
HD Live streaming from Space Station
objects crossing your sky now

SL-12 DEB

Track SL-12 DEB now!
10-day predictions


NORAD ID: 41704
Int'l Code: 2010-007W
Perigee: 942.6 km
Apogee: 18,000.6 km
Inclination: 65.4 °
Period: 330.7 minutes
Semi major axis: 15842 km
RCS: Unknown
Launch date: March 1, 2010
Source: Commonwealth of Independent States (former USSR) (CIS)
Launch site: TYURATAM MISSILE AND SPACE COMPLEX (TTMTR)

Note: This is SATELLITE DEBRIS
aabbcc
Your satellite tracking list
Your tracking list is empty




NASA's NSSDC Master Catalog

Two Line Element Set (TLE):
1 41704U 10007W   17323.87265024 +.00003059 +00000-0 +81718-1 0  9997
2 41704 065.4181 239.7468 5383608 058.5239 343.2081 04.35374475043692
Source of the keplerian elements: AFSPC